Home > Time Zones > World Clock > Weather > Japan > Tokyo > Past weeks

Flag for Japan Weather past 2 weeks in Tokyo, Japan

Now
49 °F

Cool.


Feels Like: 44 °F
Forecast: 41 / 53 °F
Wind: 12 mph from Northwest

Location: Tokyo

Current Time: Mar 2, 2015 at 2:26:08 AM

Latest Report: Mar 2, 2015 at 1:00 AM


Visibility: N/A

Pressure: 29.56 "Hg

Humidity: 58%

Dew point: 35 °F

Location of TokyoLocation

Historic Weather in Tokyo — Graph

°F

Tokyo temperature yesterday

Maximum temperature yesterday: 48 °F (at 11:00 PM)
Minimum temperature yesterday: 42 °F (at 8:00 PM)
Average temperature yesterday: 44 °F

Past Weeks' High & Low Weather Summary

 TemperatureHumidityPressure
High65 °F (Feb 23, 3:00 PM)97% (Feb 23, 1:00 AM)30.40 "Hg (Feb 23, 1:00 AM)
Low34 °F (Feb 15, 5:00 AM)18% (Feb 28, 3:00 PM)29.47 "Hg (Mar 1, 9:00 PM)
Average44 °F66%30.00 "Hg
* Reported Feb 15 1:00 AM — Mar 2 1:00 AM, Tokyo, Weather by CustomWeather, © 2015

Note: Actual official high and low records may vary slightly from our data, if they occured in-between our weather recording intervals... More about our weather records

Advertising

Tokyo weather history for previous 24 hours

 ConditionsComfort  
Time TempWeatherWind HumidityBarometerVisibility
1:00 AM
Mon, Mar 2
49 °FCool.12 mph58%29.56 "HgN/A
12:00 AM49 °FCool.13 mph64%29.50 "HgN/A
11:00 PM
Sun, Mar 1
48 °FCool.13 mph76%29.47 "HgN/A
10:00 PM44 °FQuite cool.14 mph91%29.47 "HgN/A
9:00 PM44 °FLight rain. Overcast.16 mph94%29.47 "Hg9 mi
8:00 PM42 °FQuite cool.12 mph96%29.50 "HgN/A
7:00 PM44 °FQuite cool.12 mph97%29.56 "HgN/A
6:00 PM43 °FRain. Low clouds.10 mph97%29.65 "Hg2 mi
5:00 PM43 °FQuite cool.6 mph96%29.71 "HgN/A
4:00 PM44 °FQuite cool.3 mph95%29.76 "HgN/A
3:00 PM44 °FLight rain. Low clouds.5 mph96%29.83 "Hg2 mi
2:00 PM43 °FQuite cool.3 mph92%29.89 "HgN/A
1:00 PM43 °FQuite cool.5 mph88%29.95 "HgN/A
11:00 AM45 °FQuite cool.7 mph65%30.08 "HgN/A
10:00 AM44 °FQuite cool.5 mph67%30.12 "HgN/A
9:00 AM44 °FOvercast.3 mph69%30.16 "Hg9 mi
8:00 AM43 °FQuite cool.6 mph72%30.19 "HgN/A
7:00 AM43 °FQuite cool.5 mph73%30.19 "HgN/A
6:00 AM42 °FLight rain. Overcast.2 mph76%30.21 "Hg9 mi
5:00 AM44 °FQuite cool.3 mph71%30.22 "HgN/A
4:00 AM45 °FCool.3 mph65%30.23 "HgN/A
3:00 AM46 °FOvercast.2 mph64%30.25 "Hg12 mi
2:00 AM47 °FCool.6 mph61%30.27 "HgN/A
Weather by CustomWeather, © 2015

See weather overviewHow to use our weather pages